CZ-6A DEB, 56587

Orbit data source: Space-Track

CZ-6A DEB, 56587 is space debris in SSO originally from a launch on Fri, 11 Nov 2022 UTC launched from the Taiyaun Space Center, China (TSC). Debris objects in space refer to the collection of defunct objects orbiting the Earth. Examples of debris include non-operational satellites, rocket bodies, and fragments generated from explosions, collisions, or faulty payload assembly.

Loading next visibility...
Identifier
56587, 2022-151ADK
Orbit
SSO
Country
Flag of CNCN / PRC
Related business
Manufacturer
SAST
Mission
Spacecraft
Bus & Motor
Unknown
Mass
Unknown
Launch date (UTC)
2022-11-11 (4 years ago)
Launch vehicle
Unknown
Launch site
Taiyaun Space Center, China (TSC)
Object type
Payload
Rocket body
Debris
Shape & HBR
Unknown shape, 0.1 m
Radar Cross Section
Medium (>0.1 m² and <1 m²)

Expand to show TLE details & history
Last TLE update: 1 day ago

TLE from 1 day ago
0 CZ-6A DEB
1 56587U 22151ADK 26234.64476848  .00001052  00000-0  77132-3 0  9997
2 56587  98.9406 195.9213 0166469 310.8743  47.8093 13.91661663168814
Epoch: 2026-08-22T15:28Z
TLE epoch observation values (Epoch: 2026-08-22T15:28:27.996Z)
Latitude
-0°
Longitude
-7.14756°
Altitude
845.172 km
Speed
7.471 km/s
True Right ascension
13h 03m 41s
True Declination
0° 00' 00"
Sunlit
Object was in daylight at epoch
Visualization orbit readout
Latitude
Unknown
Longitude
Unknown
Altitude
Unknown
Speed
Unknown
Apparent Right ascension
Unknown
Apparent Declination
Unknown
Sunlit
N/A
Visualization observer readout
Local Sidereal Time
15:52:58
Azimuth
Unknown
Elevation
Unknown
Doppler factor
Unknown
Orbital elements
Apogee altitude
1,041.512 km
Perigee altitude
798.528 km
Semi-major axis
7,298.157 km
Eccentricity
0.01665
Inclination
98.9406°
RAAN
195.9213°
Arg. of periapsis
310.8743°
True anomaly
49.24253°
Mean anomaly
47.8093°
Eccentric anomaly
48.52392°
Mean motion
3.48116 °/min
Orbital period
103.41 mins
BSTAR
0.00077132
Loading maneuver chart data...
Computing Atmospheric mass density...

Documentation

Showing up to 5 results
|